QPF
0.00 0.00 0.00 0.00 0.00 0.00 0.00 0.00 0.00 0.00 0.00 0.00 0.00 0.00 0.00 0.00 0.00 0.00 0.00 0.00 0.00 0.00 0.00 0.00 0.00 0.00 0.00 0.00 0.00 0.00 0.00 0.00 0.00 0.00 0.00 0.00 0.00 0.00 0.00 0.00 0.00 0.00
0.00 0.00 0.00 0.00 0.00 0.00 0.00 0.00 0.00 0.00 0.00 0.00 0.00 0.00 0.00 0.00 0.00 0.00 0.00 0.00 0.00 0.00 0.00 0.00 0.00 0.00 0.00 0.00 0.00 0.00 0.00 0.00 0.00 0.00 0.00 0.00 0.00 0.00 0.00 0.00 0.00 0.00
0.00 0.00 0.00 0.00 0.00 0.00 0.00 0.00 0.00 0.00 0.00 0.00 0.00 0.00 0.00 0.00 0.00 0.00 0.00 0.00 0.00 0.00 0.00 0.00 0.00 0.00 0.00 0.00 0.00 0.00 0.00 0.00 0.00 0.00 0.00 0.00 0.00 0.00 0.00 0.00 0.00 0.00
0.00 0.00 0.00 0.00 0.00 0.00 0.00 0.00 0.00 0.00 0.00 0.00 0.00 0.00 0.00 0.00 0.00 0.00 0.00 0.00 0.00 0.00 0.00 0.00 0.00 0.00 0.00 0.00 0.00 0.00 0.00 0.00 0.00 0.00 0.00 0.00 0.00 0.00 0.00 0.00 0.00 0.00
0.00 0.00 0.00 0.00 0.00 0.00 0.00 0.00 0.00 0.00 0.00 0.00 0.00 0.00 0.00 0.00 0.00 0.00 0.00 0.00 0.00 0.00 0.00 0.00 0.00 0.00 0.00 0.00 0.00 0.00 0.00 0.00 0.00 0.00 0.00 0.00 0.00 0.00 0.00 0.00 0.00 0.00
0.00 0.00 0.00 0.00 0.00 0.00 0.00 0.00 0.00 0.00 0.00 0.00 0.00 0.00 0.00 0.00 0.00 0.00 0.00 0.00 0.00 0.00 0.00 0.00 0.00 0.00 0.00 0.00 0.00 0.00 0.00 0.00 0.00 0.00 0.00 0.00 0.00 0.00 0.00 0.00 0.00 0.00
0.00 0.00 0.00 0.00 0.00 0.00 0.00 0.00 0.00 0.00 0.00 0.00 0.00 0.00 0.00 0.00 0.00 0.00 0.00 0.00 0.00 0.00 0.00 0.00 0.00 0.00 0.00 0.00 0.00 0.00 0.00 0.00 0.00 0.00 0.00 0.00 0.00 0.00 0.00 0.01 0.01 0.01
0.00 0.00 0.00 0.00 0.00 0.00 0.00 0.00 0.00 0.00 0.00 0.00 0.00 0.00 0.00 0.00 0.00 0.00 0.00 0.00 0.00 0.00 0.00 0.00 0.00 0.00 0.00 0.00 0.00 0.00 0.00 0.00 0.00 0.00 0.00 0.00 0.01 0.01 0.01 0.01 0.01 0.01
0.00 0.00 0.00 0.00 0.00 0.00 0.00 0.00 0.00 0.00 0.00 0.00 0.00 0.00 0.00 0.00 0.00 0.00 0.00 0.00 0.00 0.00 0.00 0.00 0.00 0.00 0.00 0.00 0.00 0.00 0.00 0.00 0.00 0.00 0.00 0.01 0.01 0.02 0.02 0.02 0.02 0.02
0.00 0.00 0.00 0.00 0.00 0.00 0.00 0.00 0.00 0.00 0.00 0.00 0.00 0.00 0.00 0.00 0.00 0.00 0.00 0.00 0.00 0.00 0.00 0.00 0.00 0.00 0.00 0.00 0.00 0.00 0.00 0.00 0.00 0.00 0.01 0.01 0.02 0.02 0.02 0.02 0.02 0.02
0.00 0.00 0.00 0.00 0.00 0.00 0.00 0.00 0.00 0.00 0.00 0.00 0.00 0.00 0.00 0.00 0.00 0.00 0.00 0.00 0.00 0.00 0.00 0.00 0.00 0.00 0.00 0.00 0.00 0.00 0.00 0.00 0.00 0.01 0.01 0.02 0.02 0.02 0.03 0.03 0.03 0.02
0.00 0.00 0.00 0.00 0.00 0.00 0.00 0.00 0.00 0.00 0.00 0.00 0.00 0.00 0.00 0.00 0.00 0.00 0.00 0.00 0.00 0.00 0.00 0.00 0.00 0.00 0.00 0.00 0.00 0.00 0.00 0.01 0.01 0.01 0.01 0.02 0.02 0.02 0.03 0.03 0.02 0.02
0.00 0.00 0.00 0.00 0.00 0.00 0.00 0.00 0.00 0.00 0.00 0.00 0.00 0.00 0.00 0.00 0.00 0.00 0.00 0.00 0.00 0.00 0.00 0.00 0.00 0.00 0.00 0.00 0.00 0.01 0.01 0.01 0.01 0.02 0.02 0.02 0.03 0.03 0.03 0.02 0.02 0.02
0.00 0.00 0.00 0.00 0.00 0.00 0.00 0.00 0.00 0.00 0.00 0.00 0.00 0.00 0.00 0.00 0.00 0.00 0.00 0.00 0.00 0.00 0.00 0.00 0.00 0.00 0.00 0.01 0.01 0.01 0.01 0.02 0.02 0.02 0.03 0.03 0.03 0.03 0.03 0.02 0.02 0.02
0.00 0.00 0.00 0.00 0.00 0.00 0.00 0.00 0.00 0.00 0.00 0.00 0.00 0.00 0.00 0.00 0.00 0.00 0.00 0.00 0.00 0.00 0.00 0.00 0.01 0.01 0.01 0.01 0.01 0.02 0.02 0.03 0.03 0.03 0.04 0.04 0.04 0.03 0.03 0.02 0.02 0.02
0.00 0.00 0.00 0.00 0.00 0.00 0.00 0.00 0.00 0.00 0.00 0.00 0.00 0.00 0.00 0.00 0.00 0.00 0.00 0.00 0.00 0.00 0.00 0.01 0.01 0.01 0.01 0.01 0.02 0.03 0.03 0.04 0.04 0.04 0.04 0.04 0.04 0.03 0.03 0.02 0.02 0.01
0.00 0.00 0.00 0.00 0.00 0.00 0.00 0.00 0.00 0.00 0.00 0.00 0.00 0.00 0.00 0.00 0.00 0.00 0.00 0.00 0.00 0.00 0.01 0.01 0.01 0.02 0.02 0.02 0.03 0.03 0.04 0.05 0.05 0.05 0.04 0.04 0.03 0.03 0.03 0.02 0.02 0.01
0.00 0.00 0.00 0.00 0.00 0.00 0.00 0.00 0.00 0.00 0.00 0.00 0.00 0.00 0.00 0.00 0.00 0.00 0.00 0.00 0.00 0.01 0.01 0.01 0.02 0.02 0.02 0.03 0.04 0.05 0.05 0.05 0.05 0.04 0.04 0.03 0.03 0.02 0.02 0.02 0.01 0.01
0.00 0.00 0.00 0.00 0.00 0.00 0.00 0.00 0.00 0.00 0.00 0.00 0.00 0.00 0.00 0.00 0.00 0.00 0.01 0.01 0.01 0.01 0.02 0.02 0.02 0.03 0.03 0.04 0.05 0.06 0.06 0.05 0.04 0.04 0.03 0.03 0.02 0.02 0.02 0.01 0.01 0.01
0.00 0.00 0.00 0.00 0.00 0.00 0.00 0.00 0.00 0.00 0.00 0.01 0.01 0.01 0.01 0.01 0.01 0.01 0.01 0.02 0.02 0.02 0.03 0.03 0.03 0.03 0.03 0.04 0.05 0.07 0.07 0.08 0.03 0.02 0.02 0.02 0.02 0.01 0.01 0.01 0.01 0.01
0.00 0.00 0.00 0.00 0.00 0.00 0.00 0.00 0.00 0.00 0.00 0.01 0.01 0.01 0.01 0.01 0.01 0.02 0.02 0.02 0.02 0.02 0.03 0.03 0.03 0.03 0.03 0.04 0.06 0.07 0.07 0.11 0.06 0.02 0.01 0.01 0.01 0.01 0.01 0.01 0.01 0.01
0.00 0.00 0.00 0.00 0.00 0.00 0.00 0.00 0.00 0.01 0.01 0.01 0.01 0.01 0.01 0.01 0.01 0.02 0.02 0.02 0.02 0.02 0.03 0.03 0.03 0.02 0.03 0.05 0.06 0.06 0.10 0.07 0.08 0.04 0.02 0.01 0.01 0.01 0.00 0.01 0.00 0.00
0.00 0.00 0.00 0.00 0.00 0.00 0.01 0.01 0.01 0.01 0.01 0.00 0.01 0.01 0.01 0.01 0.01 0.01 0.01 0.01 0.02 0.02 0.03 0.03 0.03 0.03 0.03 0.04 0.05 0.06 0.06 0.06 0.07 0.05 0.03 0.01 0.01 0.00 0.00 0.00 0.00 0.00
0.00 0.00 0.00 0.00 0.00 0.00 0.00 0.00 0.00 0.00 0.00 0.00 0.01 0.01 0.01 0.01 0.01 0.01 0.01 0.01 0.02 0.02 0.03 0.03 0.03 0.03 0.03 0.04 0.05 0.05 0.06 0.05 0.05 0.04 0.02 0.01 0.01 0.01 0.01 0.00 0.00 0.00
0.00 0.00 0.00 0.00 0.00 0.00 0.00 0.00 0.00 0.00 0.00 0.01 0.01 0.01 0.01 0.01 0.01 0.01 0.01 0.02 0.02 0.02 0.03 0.03 0.03 0.03 0.03 0.03 0.04 0.04 0.04 0.04 0.03 0.02 0.01 0.01 0.01 0.00 0.00 0.00 0.00 0.00
0.00 0.00 0.00 0.00 0.00 0.00 0.00 0.00 0.00 0.00 0.00 0.01 0.01 0.01 0.01 0.01 0.01 0.01 0.01 0.01 0.02 0.02 0.02 0.02 0.02 0.02 0.02 0.02 0.02 0.02 0.03 0.02 0.02 0.01 0.01 0.00 0.00 0.00 0.00 0.00 0.00 0.00
MSLP
1016.96 1017.16 1017.16 1017.32 1017.24 1017.28 1017.36 1017.60 1017.60 1017.72 1017.80 1018.08 1018.20 1018.20 1018.60 1018.72 1019.48 1019.80 1019.92 1020.36 1020.60 1020.84 1021.08 1021.36 1021.64 1022.00 1022.24 1022.56 1022.76 1023.04 1023.20 1023.36 1023.64 1023.92 1024.12 1024.36 1024.52 1024.68 1024.80 1024.88 1025.04 1025.08
1016.28 1016.52 1016.60 1016.76 1016.76 1016.76 1016.72 1016.80 1016.84 1017.08 1017.04 1017.16 1017.20 1017.44 1017.76 1018.20 1018.48 1018.88 1019.24 1019.60 1019.92 1020.12 1020.40 1020.76 1021.00 1021.28 1021.64 1021.96 1022.16 1022.44 1022.64 1022.92 1023.16 1023.36 1023.72 1023.88 1024.00 1024.32 1024.44 1024.60 1024.72 1024.96
1015.76 1016.00 1016.04 1016.04 1015.84 1015.84 1016.00 1016.16 1016.32 1016.40 1016.44 1016.32 1016.60 1016.84 1016.88 1017.24 1017.68 1018.12 1018.44 1018.76 1019.12 1019.44 1019.80 1020.04 1020.36 1020.64 1020.96 1021.24 1021.56 1021.84 1022.00 1022.24 1022.56 1022.80 1023.16 1023.28 1023.56 1023.80 1023.92 1024.24 1024.48 1024.64
1015.12 1015.12 1015.12 1015.16 1015.28 1015.32 1015.40 1015.76 1015.80 1015.88 1015.88 1015.96 1015.80 1015.80 1016.20 1016.52 1016.96 1017.28 1017.64 1018.08 1018.36 1018.64 1018.96 1019.36 1019.56 1019.92 1020.28 1020.60 1021.00 1021.20 1021.32 1021.60 1021.84 1022.36 1022.68 1022.92 1023.12 1023.28 1023.56 1023.80 1024.08 1024.36
1014.44 1014.60 1014.72 1014.72 1014.76 1014.84 1015.04 1015.24 1015.12 1015.20 1015.16 1015.00 1015.20 1015.40 1015.56 1015.88 1016.24 1016.48 1016.88 1017.20 1017.52 1017.84 1018.24 1018.56 1018.92 1019.24 1019.60 1020.00 1020.28 1020.60 1020.84 1021.16 1021.44 1021.84 1022.08 1022.28 1022.48 1022.80 1023.04 1023.36 1023.56 1023.84
1014.04 1014.08 1014.12 1014.24 1014.20 1014.36 1014.52 1014.48 1014.36 1014.44 1014.48 1014.60 1014.48 1014.64 1014.92 1015.16 1015.36 1015.68 1016.00 1016.36 1016.68 1017.08 1017.44 1017.80 1018.16 1018.44 1018.88 1019.24 1019.64 1019.80 1020.12 1020.48 1020.72 1021.16 1021.40 1021.64 1021.92 1022.24 1022.60 1022.80 1023.12 1023.36
1013.40 1013.48 1013.52 1013.56 1013.64 1013.76 1013.84 1013.72 1013.76 1013.84 1013.84 1013.72 1013.92 1014.16 1014.24 1014.44 1014.60 1014.88 1015.24 1015.48 1015.88 1016.24 1016.56 1016.92 1017.32 1017.76 1018.12 1018.56 1018.88 1019.08 1019.36 1019.64 1020.04 1020.44 1020.76 1020.96 1021.40 1021.76 1022.04 1022.40 1022.60 1022.88
1012.76 1012.80 1012.92 1013.04 1013.12 1013.12 1013.24 1013.08 1013.12 1013.12 1013.04 1013.24 1013.40 1013.24 1013.64 1013.72 1013.88 1014.20 1014.48 1014.84 1015.20 1015.44 1015.80 1016.16 1016.52 1016.84 1017.28 1017.72 1018.04 1018.32 1018.68 1019.00 1019.36 1019.72 1020.12 1020.44 1020.80 1021.16 1021.40 1021.80 1022.16 1022.56
1012.20 1012.32 1012.36 1012.44 1012.56 1012.52 1012.56 1012.40 1012.36 1012.36 1012.44 1012.64 1012.64 1012.76 1012.96 1013.12 1013.20 1013.48 1013.88 1014.24 1014.52 1014.76 1015.16 1015.52 1015.80 1016.16 1016.52 1016.92 1017.20 1017.52 1017.80 1018.16 1018.52 1018.96 1019.32 1019.72 1020.08 1020.32 1020.80 1021.28 1021.80 1022.08
1011.72 1011.72 1011.84 1011.88 1011.96 1011.88 1011.80 1011.68 1011.72 1011.72 1011.84 1012.00 1012.04 1012.24 1012.40 1012.52 1012.68 1012.92 1013.32 1013.64 1013.88 1014.20 1014.52 1014.76 1015.12 1015.48 1015.88 1016.12 1016.36 1016.72 1017.16 1017.48 1017.88 1018.28 1018.60 1018.96 1019.36 1019.76 1020.28 1020.76 1021.16 1021.68
1011.20 1011.24 1011.32 1011.32 1011.32 1011.24 1011.16 1011.12 1011.16 1011.20 1011.36 1011.48 1011.60 1011.76 1011.80 1012.04 1012.28 1012.48 1012.76 1013.08 1013.32 1013.52 1013.84 1014.16 1014.44 1014.80 1015.12 1015.44 1015.80 1016.16 1016.56 1016.92 1017.36 1017.76 1018.08 1018.40 1018.80 1019.28 1019.80 1020.24 1020.72 1021.12
1010.88 1010.92 1010.88 1010.80 1010.72 1010.68 1010.64 1010.60 1010.64 1010.72 1010.84 1010.96 1011.12 1011.20 1011.32 1011.56 1011.76 1012.04 1012.20 1012.44 1012.68 1012.92 1013.20 1013.44 1013.76 1014.12 1014.44 1014.72 1015.16 1015.64 1016.08 1016.52 1016.92 1017.32 1017.68 1018.08 1018.52 1018.96 1019.44 1019.88 1020.32 1020.72
1010.76 1010.60 1010.44 1010.36 1010.32 1010.24 1010.20 1010.24 1010.28 1010.32 1010.44 1010.52 1010.64 1010.76 1010.92 1011.16 1011.36 1011.60 1011.76 1011.92 1012.12 1012.44 1012.72 1012.96 1013.32 1013.64 1014.00 1014.40 1014.84 1015.28 1015.68 1016.12 1016.56 1017.00 1017.44 1017.92 1018.32 1018.76 1019.16 1019.56 1019.96 1020.40
1010.48 1010.44 1010.40 1010.32 1010.20 1010.16 1010.08 1010.04 1010.04 1010.08 1010.12 1010.16 1010.36 1010.56 1010.64 1010.76 1011.00 1011.20 1011.36 1011.64 1011.80 1012.08 1012.32 1012.64 1013.00 1013.36 1013.68 1014.12 1014.52 1014.92 1015.44 1015.88 1016.28 1016.76 1017.28 1017.72 1018.12 1018.52 1018.92 1019.28 1019.60 1020.04
1010.96 1010.76 1010.52 1010.32 1010.16 1010.04 1009.96 1009.92 1009.92 1009.96 1010.04 1010.16 1010.28 1010.36 1010.44 1010.52 1010.76 1011.00 1011.32 1011.60 1011.84 1012.04 1012.28 1012.60 1012.88 1013.12 1013.48 1013.88 1014.36 1014.88 1015.32 1015.76 1016.16 1016.60 1017.00 1017.48 1017.92 1018.28 1018.64 1019.00 1019.40 1019.76
1011.04 1010.88 1010.64 1010.44 1010.28 1010.20 1010.16 1010.16 1010.12 1010.16 1010.20 1010.24 1010.32 1010.44 1010.52 1010.68 1010.92 1011.12 1011.36 1011.60 1011.88 1012.16 1012.44 1012.68 1012.92 1013.16 1013.44 1013.76 1014.12 1014.56 1015.08 1015.52 1016.00 1016.36 1016.76 1017.16 1017.64 1018.04 1018.44 1018.72 1019.04 1019.36
1011.32 1011.16 1011.00 1010.80 1010.76 1010.60 1010.56 1010.44 1010.40 1010.44 1010.44 1010.48 1010.60 1010.72 1010.84 1011.00 1011.20 1011.40 1011.56 1011.80 1012.04 1012.28 1012.52 1012.72 1012.92 1013.16 1013.40 1013.60 1013.92 1014.28 1014.84 1015.32 1015.68 1016.04 1016.48 1016.92 1017.24 1017.60 1017.96 1018.32 1018.72 1019.08
1011.60 1011.40 1011.24 1011.12 1011.00 1010.92 1010.92 1010.92 1010.88 1010.84 1010.88 1011.00 1011.08 1011.12 1011.28 1011.44 1011.52 1011.60 1011.80 1012.00 1012.20 1012.40 1012.56 1012.72 1012.88 1013.08 1013.28 1013.48 1013.68 1013.96 1014.44 1015.00 1015.40 1015.84 1016.20 1016.52 1016.84 1017.20 1017.60 1018.00 1018.40 1018.84
1011.84 1011.64 1011.52 1011.44 1011.40 1011.36 1011.32 1011.24 1011.20 1011.20 1011.20 1011.28 1011.32 1011.56 1011.68 1011.68 1011.76 1011.92 1012.04 1012.24 1012.40 1012.52 1012.64 1012.76 1012.92 1013.04 1013.16 1013.28 1013.40 1013.60 1013.92 1014.56 1015.12 1015.48 1015.88 1016.16 1016.52 1016.88 1017.28 1017.68 1018.12 1018.60
1012.04 1011.92 1011.84 1011.84 1011.76 1011.60 1011.52 1011.44 1011.40 1011.44 1011.60 1011.76 1011.84 1011.88 1011.92 1012.00 1012.12 1012.16 1012.32 1012.44 1012.52 1012.60 1012.64 1012.76 1012.92 1013.04 1013.04 1013.08 1013.20 1013.32 1013.48 1013.84 1014.60 1015.04 1015.48 1015.84 1016.20 1016.60 1016.96 1017.40 1017.80 1018.20
1012.44 1012.32 1012.24 1012.12 1012.04 1011.96 1011.84 1011.80 1011.80 1011.84 1011.88 1011.96 1012.00 1012.04 1012.08 1012.12 1012.24 1012.32 1012.36 1012.52 1012.60 1012.68 1012.76 1012.80 1012.96 1013.04 1013.00 1012.96 1013.00 1013.04 1013.12 1013.28 1014.32 1014.76 1015.24 1015.68 1016.08 1016.48 1016.80 1017.12 1017.52 1017.84
1012.96 1012.76 1012.64 1012.48 1012.36 1012.28 1012.20 1012.12 1012.08 1012.12 1012.08 1012.12 1012.20 1012.28 1012.40 1012.44 1012.52 1012.56 1012.60 1012.68 1012.76 1012.88 1012.96 1012.96 1013.12 1013.04 1012.96 1012.96 1012.88 1012.84 1012.88 1013.12 1014.08 1014.60 1015.00 1015.44 1015.88 1016.32 1016.68 1016.96 1017.24 1017.52
1013.48 1013.24 1013.04 1012.84 1012.68 1012.60 1012.48 1012.40 1012.40 1012.32 1012.36 1012.48 1012.48 1012.48 1012.56 1012.60 1012.68 1012.72 1012.84 1012.92 1013.00 1013.08 1013.16 1013.20 1013.40 1013.20 1013.00 1012.88 1012.80 1012.68 1012.84 1013.16 1014.04 1014.56 1014.92 1015.20 1015.60 1016.00 1016.36 1016.64 1016.84 1017.12
1013.76 1013.52 1013.36 1013.16 1013.04 1012.88 1012.80 1012.76 1012.76 1012.76 1012.72 1012.76 1012.76 1012.72 1012.76 1012.84 1012.92 1013.00 1013.08 1013.16 1013.20 1013.28 1013.32 1013.44 1013.52 1013.44 1013.08 1012.84 1012.72 1012.64 1012.80 1013.20 1013.96 1014.52 1014.88 1015.12 1015.40 1015.68 1015.96 1016.20 1016.36 1016.56
1014.04 1013.80 1013.68 1013.56 1013.44 1013.28 1013.20 1013.12 1013.00 1012.92 1012.92 1013.00 1013.00 1013.04 1013.04 1013.12 1013.16 1013.20 1013.32 1013.40 1013.48 1013.56 1013.60 1013.68 1013.72 1013.68 1013.40 1013.08 1012.84 1012.68 1012.80 1013.16 1013.68 1014.24 1014.72 1014.96 1015.16 1015.36 1015.52 1015.68 1015.96 1016.12
1014.36 1014.20 1014.04 1013.92 1013.80 1013.64 1013.48 1013.32 1013.24 1013.20 1013.12 1013.16 1013.20 1013.24 1013.28 1013.32 1013.40 1013.44 1013.48 1013.56 1013.72 1013.80 1013.80 1013.84 1013.88 1013.92 1013.88 1013.52 1013.28 1013.04 1012.96 1013.16 1013.56 1013.96 1014.20 1014.60 1014.92 1015.16 1015.44 1015.56 1015.68 1015.76
Thickness
5445 5441 5438 5436 5433 5431 5427 5423 5421 5417 5414 5410 5408 5407 5403 5399 5394 5388 5383 5380 5374 5371 5367 5362 5357 5353 5348 5343 5339 5335 5331 5328 5325 5321 5316 5313 5310 5306 5303 5300 5297 5295
5441 5437 5434 5431 5430 5427 5424 5420 5416 5413 5411 5408 5405 5402 5398 5394 5389 5384 5380 5376 5371 5367 5363 5357 5353 5348 5343 5338 5333 5329 5326 5322 5318 5314 5309 5305 5302 5298 5295 5291 5287 5284
5438 5434 5431 5429 5428 5424 5421 5416 5412 5409 5407 5404 5400 5397 5393 5389 5384 5380 5376 5371 5367 5363 5358 5352 5348 5343 5337 5333 5328 5323 5321 5317 5313 5308 5303 5300 5295 5291 5288 5283 5278 5275
5435 5431 5429 5426 5423 5420 5416 5411 5407 5405 5401 5399 5396 5392 5388 5383 5379 5375 5371 5367 5362 5358 5353 5348 5343 5338 5332 5327 5321 5318 5315 5311 5307 5302 5296 5294 5289 5285 5281 5276 5271 5267
5431 5427 5424 5420 5418 5415 5410 5405 5404 5401 5397 5395 5392 5387 5382 5377 5374 5370 5366 5362 5358 5353 5348 5343 5338 5332 5327 5321 5315 5312 5308 5304 5299 5294 5290 5287 5284 5279 5274 5269 5265 5260
5426 5422 5419 5415 5413 5409 5404 5402 5400 5396 5393 5391 5387 5382 5377 5372 5369 5366 5361 5357 5353 5348 5343 5338 5333 5327 5321 5315 5310 5306 5302 5297 5293 5287 5283 5281 5276 5271 5267 5262 5258 5254
5421 5418 5414 5411 5408 5403 5400 5399 5395 5391 5389 5386 5381 5377 5372 5367 5364 5360 5356 5352 5347 5343 5338 5333 5328 5322 5316 5309 5304 5301 5296 5291 5287 5281 5277 5274 5268 5263 5260 5255 5250 5246
5417 5414 5409 5405 5402 5398 5395 5393 5390 5387 5384 5379 5375 5373 5366 5362 5359 5354 5349 5345 5341 5337 5333 5327 5322 5317 5311 5304 5300 5296 5290 5285 5281 5275 5271 5267 5261 5257 5253 5247 5243 5238
5412 5407 5403 5399 5396 5393 5391 5388 5386 5383 5379 5373 5370 5367 5361 5356 5353 5348 5342 5338 5334 5330 5325 5320 5316 5311 5304 5299 5296 5291 5285 5280 5275 5269 5265 5260 5255 5251 5246 5240 5235 5231
5405 5401 5397 5393 5390 5387 5386 5383 5380 5377 5372 5368 5364 5360 5355 5350 5346 5340 5336 5331 5327 5323 5318 5314 5309 5304 5298 5294 5290 5285 5279 5274 5268 5263 5259 5254 5249 5244 5238 5233 5228 5224
5398 5394 5390 5387 5384 5382 5380 5377 5374 5370 5366 5362 5357 5353 5348 5343 5338 5333 5328 5324 5320 5316 5311 5307 5302 5297 5292 5288 5283 5277 5272 5267 5261 5255 5251 5246 5241 5236 5230 5225 5220 5216
5390 5387 5383 5380 5378 5375 5373 5370 5366 5362 5358 5354 5350 5345 5341 5336 5331 5326 5321 5317 5313 5309 5304 5300 5295 5290 5286 5281 5275 5269 5263 5257 5252 5247 5242 5237 5232 5227 5221 5217 5212 5208
5381 5378 5375 5373 5370 5367 5364 5361 5358 5354 5350 5347 5342 5337 5333 5328 5323 5318 5314 5309 5305 5301 5296 5292 5287 5282 5277 5272 5266 5260 5254 5249 5244 5238 5233 5227 5222 5217 5212 5208 5204 5200
5369 5367 5365 5362 5360 5357 5355 5352 5348 5345 5341 5338 5333 5328 5324 5320 5315 5310 5305 5301 5296 5292 5287 5283 5277 5273 5268 5262 5256 5250 5245 5239 5234 5228 5223 5217 5213 5208 5204 5200 5195 5191
5355 5353 5352 5350 5348 5346 5344 5340 5338 5334 5330 5327 5323 5319 5315 5310 5305 5300 5295 5290 5285 5281 5276 5271 5267 5263 5258 5252 5246 5240 5234 5229 5223 5218 5213 5208 5203 5199 5195 5191 5187 5183
5342 5340 5338 5336 5334 5332 5330 5327 5324 5321 5318 5315 5311 5307 5303 5298 5293 5288 5283 5279 5274 5269 5264 5260 5256 5252 5247 5242 5236 5230 5224 5219 5213 5209 5204 5199 5195 5190 5186 5182 5178 5174
5327 5325 5324 5322 5319 5317 5315 5313 5310 5307 5304 5301 5297 5293 5288 5284 5279 5275 5271 5266 5261 5257 5253 5249 5245 5241 5236 5231 5226 5221 5215 5209 5205 5201 5195 5191 5187 5183 5179 5174 5170 5165
5313 5311 5310 5307 5305 5302 5300 5298 5295 5293 5289 5286 5282 5278 5274 5270 5266 5262 5258 5253 5249 5245 5242 5238 5235 5231 5226 5222 5216 5212 5207 5201 5196 5192 5187 5183 5179 5175 5172 5166 5161 5156
5300 5298 5296 5293 5291 5289 5286 5284 5281 5278 5274 5271 5267 5263 5260 5256 5252 5249 5245 5241 5237 5234 5231 5228 5225 5221 5217 5212 5207 5203 5199 5194 5190 5184 5179 5176 5172 5168 5163 5158 5153 5147
5287 5284 5282 5280 5277 5275 5272 5270 5267 5264 5260 5256 5253 5250 5247 5243 5240 5237 5233 5230 5227 5224 5221 5218 5215 5211 5207 5202 5199 5195 5190 5187 5184 5178 5172 5168 5164 5160 5154 5149 5144 5139
5273 5270 5268 5266 5264 5262 5259 5257 5253 5250 5247 5243 5241 5237 5235 5231 5228 5225 5222 5219 5216 5212 5210 5207 5205 5200 5196 5192 5189 5187 5182 5178 5175 5171 5165 5158 5155 5150 5145 5141 5136 5130
5258 5256 5255 5252 5250 5248 5246 5243 5240 5237 5234 5231 5229 5226 5223 5219 5217 5214 5211 5208 5204 5201 5198 5196 5193 5189 5186 5183 5180 5177 5173 5167 5164 5162 5157 5150 5146 5141 5136 5132 5127 5122
5243 5242 5241 5238 5237 5235 5233 5231 5228 5225 5222 5219 5217 5214 5211 5208 5205 5202 5199 5195 5192 5189 5186 5184 5181 5177 5175 5173 5170 5167 5163 5156 5152 5150 5147 5142 5138 5132 5127 5123 5119 5115
5230 5229 5227 5225 5224 5222 5220 5218 5215 5213 5210 5207 5205 5203 5200 5197 5193 5190 5187 5183 5180 5177 5173 5171 5168 5165 5163 5162 5160 5157 5152 5146 5141 5138 5135 5133 5129 5124 5121 5117 5113 5109
5217 5216 5214 5212 5211 5209 5208 5206 5204 5202 5199 5196 5193 5191 5188 5184 5181 5178 5175 5171 5167 5164 5161 5158 5155 5152 5150 5149 5148 5146 5142 5136 5131 5127 5124 5122 5119 5116 5113 5110 5107 5103
5205 5204 5202 5201 5199 5197 5196 5194 5192 5190 5187 5184 5181 5178 5175 5172 5168 5165 5162 5159 5155 5151 5148 5145 5142 5139 5137 5135 5134 5133 5130 5126 5122 5119 5116 5113 5109 5106 5104 5101 5099 5096